Location: Carthage
(33.8834°N, 106.6595°W)
Time: 12:56:05
(UTC+00:00)

NOAA 12 - Pass Details

Date: 13 February 2026
Orbit: 793 x 812 km, 98.6° (Epoch: 11 March)

Event Time Altitude Azimuth Distance (km) Brightness Sun altitude
Rises 12:15:59 0° 10° (N) 3,317 7.4 -20.7°
Reaches altitude 10° 12:18:19 10° 9° (N) 2,386 6.6 -20.2°
Maximum altitude 12:23:35 75° 285° (WNW) 835 4.0 -19.1°
Drops below altitude 10° 12:28:51 10° 200° (SSW) 2,383 6.4 -18.0°
Sets 12:31:11 0° 199° (SSW) 3,312 7.1 -17.5°
